Time,TemperatureF,DewpointF,PressureIn,WindDirection,WindDirectionDegrees,WindSpeedMPH,WindSpeedGustMPH,Humidity,HourlyPrecipIn,Conditions,Clouds,dailyrainin,SoftwareType,DateUTC
2013-04-28 00:03:00,57.0,57.0,30.23,NNE,15,0.0,0.0,100,0.00,,,0.00,,2013-04-28 04:03:00,
2013-04-28 00:13:00,57.0,57.0,30.23,NNE,15,0.0,0.0,100,0.00,,,0.00,,2013-04-28 04:13:00,
2013-04-28 00:23:00,57.0,57.0,30.23,NNE,15,0.0,0.0,100,0.00,,,0.22,,2013-04-28 04:23:00,
2013-04-28 00:32:00,57.0,57.0,30.23,NNE,15,0.0,0.0,100,0.00,,,0.22,,2013-04-28 04:32:00,
2013-04-28 00:43:00,57.0,57.0,30.23,NNE,15,0.0,0.0,100,0.00,,,0.22,,2013-04-28 04:43:00,
2013-04-28 00:53:00,56.0,56.0,30.22,ENE,70,3.0,6.0,100,0.00,,,0.22,,2013-04-28 04:53:00,
2013-04-28 01:02:00,56.0,56.0,30.23,East,91,0.0,2.0,100,0.00,,,0.22,,2013-04-28 05:02:00,
2013-04-28 01:12:00,56.0,56.0,30.23,East,91,0.0,2.0,100,0.00,,,0.22,,2013-04-28 05:12:00,
2013-04-28 01:22:00,56.0,56.0,30.23,NE,35,0.0,0.0,100,0.00,,,0.22,,2013-04-28 05:22:00,
2013-04-28 01:32:00,56.0,56.0,30.23,NE,35,0.0,0.0,100,0.00,,,0.22,,2013-04-28 05:32:00,
2013-04-28 01:42:00,56.0,56.0,30.23,NE,35,0.0,0.0,100,0.00,,,0.22,,2013-04-28 05:42:00,
2013-04-28 01:52:00,56.0,56.0,30.23,NE,35,0.0,0.0,100,0.00,,,0.22,,2013-04-28 05:52:00,
2013-04-28 02:01:00,56.0,56.0,30.22,NE,35,0.0,0.0,100,0.00,,,0.22,,2013-04-28 06:01:00,
2013-04-28 02:12:00,56.0,56.0,30.22,NE,35,0.0,0.0,100,0.00,,,0.22,,2013-04-28 06:12:00,
2013-04-28 02:21:00,56.0,56.0,30.22,NNE,27,1.0,3.0,100,0.00,,,0.22,,2013-04-28 06:21:00,
2013-04-28 02:32:00,56.0,56.0,30.21,North,6,0.0,2.0,100,0.00,,,0.22,,2013-04-28 06:32:00,
2013-04-28 02:42:00,56.0,56.0,30.21,North,6,0.0,2.0,100,0.00,,,0.22,,2013-04-28 06:42:00,
2013-04-28 02:52:00,56.0,56.0,30.20,NE,34,0.0,3.0,100,0.00,,,0.22,,2013-04-28 06:52:00,
2013-04-28 03:01:00,56.0,56.0,30.19,NNE,20,2.0,5.0,100,0.00,,,0.22,,2013-04-28 07:01:00,
2013-04-28 03:11:00,56.0,56.0,30.19,NNE,20,2.0,5.0,100,0.00,,,0.22,,2013-04-28 07:11:00,
2013-04-28 03:21:00,56.0,56.0,30.19,North,357,2.0,5.0,100,0.00,,,0.22,,2013-04-28 07:21:00,
2013-04-28 03:32:00,56.0,56.0,30.18,ENE,59,0.0,6.0,100,0.00,,,0.22,,2013-04-28 07:32:00,
2013-04-28 03:42:00,56.0,56.0,30.18,ENE,59,0.0,6.0,100,0.00,,,0.22,,2013-04-28 07:42:00,
2013-04-28 03:52:00,56.0,56.0,30.18,North,359,0.0,3.0,100,0.00,,,0.22,,2013-04-28 07:52:00,
2013-04-28 04:02:00,55.0,55.0,30.17,NE,46,4.0,7.0,100,0.00,,,0.22,,2013-04-28 08:02:00,
2013-04-28 04:11:00,55.0,55.0,30.17,NE,46,4.0,7.0,100,0.00,,,0.22,,2013-04-28 08:11:00,
2013-04-28 04:21:00,55.0,55.0,30.17,NE,35,4.0,7.0,100,0.00,,,0.22,,2013-04-28 08:21:00,
2013-04-28 04:32:00,55.0,55.0,30.17,SE,128,0.0,8.0,100,0.00,,,0.22,,2013-04-28 08:32:00,
2013-04-28 04:42:00,55.0,55.0,30.17,SE,128,0.0,8.0,100,0.00,,,0.22,,2013-04-28 08:42:00,
2013-04-28 04:52:00,55.0,55.0,30.18,NE,35,2.0,4.0,100,0.00,,,0.22,,2013-04-28 08:52:00,
2013-04-28 05:01:00,55.0,55.0,30.18,ENE,60,0.0,5.0,100,0.00,,,0.22,,2013-04-28 09:01:00,
2013-04-28 05:12:00,55.0,55.0,30.18,ENE,60,0.0,5.0,100,0.00,,,0.22,,2013-04-28 09:12:00,
2013-04-28 05:21:00,55.0,55.0,30.17,East,90,2.0,6.0,100,0.00,,,0.22,,2013-04-28 09:21:00,
2013-04-28 05:33:00,55.0,55.0,30.18,NNE,31,0.0,6.0,100,0.00,,,0.22,,2013-04-28 09:33:00,
2013-04-28 05:42:00,55.0,55.0,30.18,NNE,31,0.0,6.0,100,0.00,,,0.22,,2013-04-28 09:42:00,
2013-04-28 05:53:00,55.0,55.0,30.18,ENE,60,0.0,0.0,100,0.00,,,0.22,,2013-04-28 09:53:00,
2013-04-28 06:03:00,55.0,55.0,30.16,NNE,28,0.0,2.0,100,0.00,,,0.22,,2013-04-28 10:03:00,
2013-04-28 06:12:00,55.0,55.0,30.16,NNE,28,0.0,2.0,100,0.00,,,0.22,,2013-04-28 10:12:00,
2013-04-28 06:22:00,55.0,55.0,30.17,ESE,103,1.0,5.0,100,0.00,,,0.22,,2013-04-28 10:22:00,
2013-04-28 06:32:00,55.0,55.0,30.20,NE,53,0.0,0.0,100,0.00,,,0.22,,2013-04-28 10:32:00,
2013-04-28 06:42:00,55.0,55.0,30.20,NE,53,0.0,0.0,100,0.00,,,0.22,,2013-04-28 10:42:00,
2013-04-28 06:53:00,55.0,55.0,30.20,WSW,253,0.0,0.0,100,0.00,,,0.22,,2013-04-28 10:53:00,
2013-04-28 07:02:00,54.0,54.0,30.20,WSW,253,0.0,0.0,100,0.00,,,0.22,,2013-04-28 11:02:00,
2013-04-28 07:11:00,54.0,54.0,30.20,WSW,253,0.0,0.0,100,0.00,,,0.22,,2013-04-28 11:11:00,
2013-04-28 07:22:00,54.0,54.0,30.21,WSW,253,0.0,0.0,100,0.00,,,0.22,,2013-04-28 11:22:00,
2013-04-28 07:32:00,54.0,54.0,30.20,WSW,253,0.0,0.0,100,0.00,,,0.22,,2013-04-28 11:32:00,
2013-04-28 07:42:00,54.0,54.0,30.20,WSW,253,0.0,0.0,100,0.00,,,0.22,,2013-04-28 11:42:00,
2013-04-28 07:52:00,55.0,55.0,30.19,NNE,30,0.0,4.0,100,0.00,,,0.22,,2013-04-28 11:52:00,
2013-04-28 08:02:00,55.0,55.0,30.19,NE,39,0.0,4.0,100,0.01,,,0.22,,2013-04-28 12:02:00,
2013-04-28 08:12:00,55.0,55.0,30.19,NE,39,0.0,4.0,100,0.01,,,0.22,,2013-04-28 12:12:00,
2013-04-28 08:21:00,55.0,55.0,30.19,NNE,25,0.0,2.0,100,0.01,,,0.22,,2013-04-28 12:21:00,
2013-04-28 08:32:00,55.0,55.0,30.20,NNE,25,0.0,0.0,100,0.01,,,0.22,,2013-04-28 12:32:00,
2013-04-28 08:42:00,55.0,55.0,30.20,NNE,25,0.0,0.0,100,0.01,,,0.22,,2013-04-28 12:42:00,
2013-04-28 08:52:00,55.0,55.0,30.19,NNE,25,0.0,0.0,100,0.01,,,0.22,,2013-04-28 12:52:00,
2013-04-28 09:02:00,56.0,56.0,30.19,ENE,60,1.0,5.0,100,0.00,,,0.22,,2013-04-28 13:02:00,
2013-04-28 09:11:00,56.0,56.0,30.19,ENE,60,1.0,5.0,100,0.00,,,0.22,,2013-04-28 13:11:00,
2013-04-28 09:21:00,56.0,56.0,30.20,ESE,103,0.0,4.0,100,0.00,,,0.22,,2013-04-28 13:21:00,
2013-04-28 09:32:00,56.0,56.0,30.19,ENE,76,1.0,5.0,100,0.00,,,0.22,,2013-04-28 13:32:00,
2013-04-28 09:42:00,56.0,56.0,30.19,ENE,76,1.0,5.0,100,0.00,,,0.22,,2013-04-28 13:42:00,
2013-04-28 09:52:00,56.0,56.0,30.19,NE,35,2.0,5.0,100,0.00,,,0.22,,2013-04-28 13:52:00,
2013-04-28 10:02:00,56.0,56.0,30.19,NE,56,3.0,7.0,100,0.00,,,0.22,,2013-04-28 14:02:00,
2013-04-28 10:11:00,56.0,56.0,30.19,NE,56,3.0,7.0,100,0.00,,,0.22,,2013-04-28 14:11:00,
2013-04-28 10:22:00,56.0,56.0,30.19,NNE,21,3.0,5.0,100,0.02,,,0.22,,2013-04-28 14:22:00,
2013-04-28 10:32:00,56.0,56.0,30.19,NE,46,2.0,6.0,100,0.02,,,0.22,,2013-04-28 14:32:00,
2013-04-28 10:42:00,56.0,56.0,30.19,NE,46,2.0,6.0,100,0.02,,,0.22,,2013-04-28 14:42:00,
2013-04-28 10:52:00,56.0,56.0,30.19,NE,38,1.0,4.0,100,0.02,,,0.22,,2013-04-28 14:52:00,
2013-04-28 11:02:00,57.0,57.0,30.19,North,3,1.0,7.0,100,0.02,,,0.22,,2013-04-28 15:02:00,
2013-04-28 11:12:00,57.0,57.0,30.19,North,3,1.0,7.0,100,0.02,,,0.22,,2013-04-28 15:12:00,
2013-04-28 11:21:00,57.0,57.0,30.19,East,82,2.0,4.0,100,0.00,,,0.22,,2013-04-28 15:21:00,
2013-04-28 11:32:00,58.0,58.0,30.19,North,8,0.0,5.0,100,0.00,,,0.22,,2013-04-28 15:32:00,
2013-04-28 11:42:00,58.0,58.0,30.19,North,8,0.0,5.0,100,0.00,,,0.22,,2013-04-28 15:42:00,
2013-04-28 11:53:00,58.0,58.0,30.18,ENE,73,1.0,5.0,100,0.00,,,0.22,,2013-04-28 15:53:00,
2013-04-28 12:03:00,58.0,58.0,30.19,ESE,110,0.0,4.0,100,0.00,,,0.22,,2013-04-28 16:03:00,
2013-04-28 12:13:00,58.0,58.0,30.19,ESE,110,0.0,4.0,100,0.00,,,0.22,,2013-04-28 16:13:00,
2013-04-28 12:23:00,59.0,59.0,30.17,NE,52,1.0,3.0,100,0.00,,,0.22,,2013-04-28 16:23:00,
2013-04-28 12:33:00,60.0,60.0,30.16,East,100,3.0,9.0,100,0.00,,,0.22,,2013-04-28 16:33:00,
2013-04-28 12:42:00,60.0,60.0,30.16,East,100,3.0,9.0,100,0.00,,,0.22,,2013-04-28 16:42:00,
2013-04-28 12:52:00,59.0,59.0,30.16,NE,56,1.0,7.0,100,0.00,,,0.22,,2013-04-28 16:52:00,
2013-04-28 13:02:00,59.0,59.0,30.15,NNE,30,4.0,7.0,100,0.00,,,0.22,,2013-04-28 17:02:00,
2013-04-28 13:12:00,59.0,59.0,30.15,NNE,30,4.0,7.0,100,0.00,,,0.22,,2013-04-28 17:12:00,
2013-04-28 13:22:00,60.0,60.0,30.14,NE,55,3.0,5.0,100,0.00,,,0.22,,2013-04-28 17:22:00,
2013-04-28 13:32:00,60.0,60.0,30.13,ENE,77,1.0,7.0,100,0.00,,,0.22,,2013-04-28 17:32:00,
2013-04-28 13:42:00,60.0,60.0,30.13,ENE,77,1.0,7.0,100,0.00,,,0.22,,2013-04-28 17:42:00,
2013-04-28 13:52:00,60.0,60.0,30.12,North,359,1.0,9.0,100,0.00,,,0.22,,2013-04-28 17:52:00,
2013-04-28 14:02:00,60.0,60.0,30.12,ESE,120,0.0,7.0,100,0.00,,,0.22,,2013-04-28 18:02:00,
2013-04-28 14:12:00,60.0,60.0,30.12,ESE,120,0.0,7.0,100,0.00,,,0.22,,2013-04-28 18:12:00,
2013-04-28 14:22:00,60.0,60.0,30.12,ESE,120,1.0,8.0,100,0.01,,,0.22,,2013-04-28 18:22:00,
2013-04-28 14:32:00,61.0,61.0,30.12,ESE,107,1.0,7.0,100,0.03,,,0.22,,2013-04-28 18:32:00,
2013-04-28 14:42:00,61.0,61.0,30.12,ESE,107,1.0,7.0,100,0.03,,,0.22,,2013-04-28 18:42:00,
2013-04-28 14:52:00,61.0,61.0,30.11,North,359,3.0,9.0,100,0.06,,,0.22,,2013-04-28 18:52:00,
2013-04-28 15:02:00,60.0,60.0,30.11,ENE,66,2.0,10.0,100,0.08,,,0.22,,2013-04-28 19:02:00,
2013-04-28 15:11:00,60.0,60.0,30.11,ENE,66,2.0,10.0,100,0.08,,,0.22,,2013-04-28 19:11:00,
2013-04-28 15:22:00,61.0,61.0,30.10,ENE,63,0.0,7.0,100,0.09,,,0.22,,2013-04-28 19:22:00,
2013-04-28 15:32:00,60.0,60.0,30.11,NW,312,5.0,9.0,100,0.14,,,0.22,,2013-04-28 19:32:00,
2013-04-28 15:42:00,60.0,60.0,30.11,NW,312,5.0,9.0,100,0.14,,,0.22,,2013-04-28 19:42:00,
2013-04-28 15:52:00,59.0,59.0,30.10,NW,318,4.0,9.0,100,0.40,,,0.22,,2013-04-28 19:52:00,
2013-04-28 16:02:00,58.0,58.0,30.10,NNW,328,5.0,11.0,100,0.53,,,0.22,,2013-04-28 20:02:00,
2013-04-28 16:12:00,58.0,58.0,30.10,NNW,328,5.0,11.0,100,0.53,,,0.22,,2013-04-28 20:12:00,
2013-04-28 16:22:00,57.0,57.0,30.09,NNW,335,4.0,10.0,100,0.63,,,0.22,,2013-04-28 20:22:00,
2013-04-28 16:32:00,57.0,57.0,30.09,NNE,25,5.0,11.0,100,0.62,,,0.22,,2013-04-28 20:32:00,
2013-04-28 16:42:00,57.0,57.0,30.09,NNE,25,5.0,11.0,100,0.62,,,0.22,,2013-04-28 20:42:00,
2013-04-28 16:52:00,57.0,57.0,30.09,NW,312,5.0,11.0,100,0.39,,,0.22,,2013-04-28 20:52:00,
2013-04-28 17:01:00,57.0,57.0,30.09,North,354,5.0,11.0,100,0.26,,,0.22,,2013-04-28 21:01:00,
2013-04-28 17:11:00,57.0,57.0,30.09,North,354,5.0,11.0,100,0.26,,,0.22,,2013-04-28 21:11:00,
2013-04-28 17:22:00,57.0,57.0,30.08,North,359,1.0,10.0,100,0.15,,,0.22,,2013-04-28 21:22:00,
2013-04-28 17:33:00,57.0,57.0,30.08,North,359,3.0,10.0,100,0.11,,,0.22,,2013-04-28 21:33:00,
2013-04-28 17:42:00,57.0,57.0,30.08,North,359,3.0,10.0,100,0.11,,,0.22,,2013-04-28 21:42:00,
2013-04-28 17:53:00,57.0,57.0,30.08,NNW,340,3.0,9.0,100,0.07,,,0.22,,2013-04-28 21:53:00,
2013-04-28 18:03:00,57.0,57.0,30.08,North,359,3.0,10.0,100,0.06,,,0.22,,2013-04-28 22:03:00,
2013-04-28 18:12:00,57.0,57.0,30.08,North,359,3.0,10.0,100,0.06,,,0.22,,2013-04-28 22:12:00,
2013-04-28 18:23:00,57.0,57.0,30.08,NNE,14,6.0,12.0,100,0.06,,,0.22,,2013-04-28 22:23:00,
2013-04-28 18:33:00,57.0,57.0,30.07,North,359,6.0,12.0,100,0.06,,,0.22,,2013-04-28 22:33:00,
2013-04-28 18:42:00,57.0,57.0,30.07,North,359,6.0,12.0,100,0.06,,,0.22,,2013-04-28 22:42:00,
2013-04-28 18:52:00,57.0,57.0,30.06,North,0,2.0,10.0,100,0.06,,,0.22,,2013-04-28 22:52:00,
2013-04-28 19:02:00,57.0,57.0,30.06,NNE,25,5.0,12.0,100,0.06,,,0.22,,2013-04-28 23:02:00,
2013-04-28 19:12:00,57.0,57.0,30.06,NNE,25,5.0,12.0,100,0.06,,,0.22,,2013-04-28 23:12:00,
2013-04-28 19:22:00,57.0,57.0,30.05,ENE,70,8.0,12.0,100,0.06,,,0.22,,2013-04-28 23:22:00,
2013-04-28 19:32:00,57.0,57.0,30.06,North,7,4.0,10.0,100,0.05,,,0.22,,2013-04-28 23:32:00,
2013-04-28 19:42:00,57.0,57.0,30.06,North,7,4.0,10.0,100,0.05,,,0.22,,2013-04-28 23:42:00,
2013-04-28 19:52:00,57.0,57.0,30.06,NNE,21,2.0,9.0,100,0.05,,,0.22,,2013-04-28 23:52:00,
2013-04-28 20:01:00,56.0,56.0,30.07,NW,309,3.0,9.0,100,0.22,,,0.22,,2013-04-29 00:01:00,
2013-04-28 20:11:00,56.0,56.0,30.07,NW,309,3.0,9.0,100,0.22,,,0.22,,2013-04-29 00:11:00,
2013-04-28 20:22:00,56.0,56.0,30.06,North,359,5.0,10.0,100,0.29,,,0.22,,2013-04-29 00:22:00,
2013-04-28 20:32:00,56.0,56.0,30.06,North,356,5.0,10.0,100,0.33,,,0.22,,2013-04-29 00:32:00,
2013-04-28 20:42:00,56.0,56.0,30.06,North,356,5.0,10.0,100,0.33,,,0.22,,2013-04-29 00:42:00,
2013-04-28 20:52:00,56.0,56.0,30.06,NNE,14,5.0,10.0,100,0.33,,,0.22,,2013-04-29 00:52:00,
2013-04-28 21:01:00,56.0,56.0,30.06,ENE,58,2.0,9.0,100,0.16,,,0.22,,2013-04-29 01:01:00,
2013-04-28 21:12:00,56.0,56.0,30.06,NNW,340,4.0,9.0,100,0.10,,,0.22,,2013-04-29 01:12:00,
2013-04-28 21:21:00,56.0,56.0,30.06,NNW,340,4.0,9.0,100,0.10,,,0.22,,2013-04-29 01:21:00,
2013-04-28 21:32:00,56.0,56.0,30.07,ENE,72,4.0,8.0,100,0.17,,,0.22,,2013-04-29 01:32:00,
2013-04-28 21:42:00,56.0,56.0,30.07,ENE,72,4.0,8.0,100,0.17,,,0.22,,2013-04-29 01:42:00,
2013-04-28 21:52:00,56.0,56.0,30.07,NNE,31,0.0,4.0,100,0.36,,,0.22,,2013-04-29 01:52:00,
2013-04-28 22:02:00,56.0,56.0,30.07,NNE,25,3.0,5.0,100,0.38,,,0.22,,2013-04-29 02:02:00,
2013-04-28 22:11:00,56.0,56.0,30.07,NNE,25,3.0,5.0,100,0.38,,,0.22,,2013-04-29 02:11:00,
2013-04-28 22:22:00,56.0,56.0,30.07,NE,35,0.0,5.0,100,0.41,,,0.22,,2013-04-29 02:22:00,
2013-04-28 22:32:00,56.0,56.0,30.06,NE,51,0.0,5.0,100,0.31,,,0.22,,2013-04-29 02:32:00,
2013-04-28 22:42:00,56.0,56.0,30.06,NE,51,0.0,5.0,100,0.31,,,0.22,,2013-04-29 02:42:00,
2013-04-28 22:52:00,56.0,56.0,30.06,NE,34,3.0,5.0,100,0.12,,,0.22,,2013-04-29 02:52:00,
2013-04-28 23:01:00,57.0,57.0,30.06,NE,42,2.0,5.0,100,0.10,,,0.22,,2013-04-29 03:01:00,
2013-04-28 23:12:00,57.0,57.0,30.06,NE,42,2.0,5.0,100,0.10,,,0.22,,2013-04-29 03:12:00,
2013-04-28 23:21:00,57.0,57.0,30.06,NE,49,0.0,5.0,100,0.06,,,0.22,,2013-04-29 03:21:00,
2013-04-28 23:33:00,57.0,57.0,30.06,ENE,75,0.0,5.0,100,0.05,,,0.22,,2013-04-29 03:33:00,
2013-04-28 23:42:00,57.0,57.0,30.06,ENE,75,0.0,5.0,100,0.05,,,0.22,,2013-04-29 03:42:00,
2013-04-28 23:53:00,57.0,57.0,30.05,NE,49,1.0,6.0,100,0.04,,,0.22,,2013-04-29 03:53:00,